Погода в Красивом

Россия / Тамбовская область     53°02′36″N   40°35′55″E
В апреле 2022 года жителям России запретили посещать сайт meteo.paraplan.net по решению Генеральной прокуратуры. Аудитория сайта уменьшилась в 10 раз. Владельцы сайта не видят смысла в поддержке погодного сервера в таких условиях. Сайт будет закрыт в октябре.
темп.,
°C
ветер,
м/с
пор.,
м/с
влажн.,
%
обл.,
%
осадки,
мм/ч
давл.,
гПа
погр.,
м
30 сентября, пт
пт3000:00+12ююз1189100 0.0 101611
03:00+11ю3392100 0.0 101753
06:00+11ююв3493100 0.0 101885
09:00+13ю4880100 0.0 1018317
12:00+17ю5868100 0.0 1018623
15:00+17ююз4774100 0.1 1018660
18:00+15юв3890100 1.6 1019249
21:00+14юв4109055 3.4 1018291
1 октября, сб
сб100:00+14ююв4119283 1.7 1018288
03:00+13ююв3993100 2.3 1018195
06:00+13ю3994100 1.4 1018250
09:00+15ююв51191100 0.9 1017384
12:00+18ю6978100 1.0 1016956
15:00+18ююз488324 1.3 1014695
18:00+16юз2394100 2.1 101332
21:00+15ююз3996100 4.1 1012183
2 октября, вс
вс200:00+15ююз41095100 1.4 1011299
03:00+13зюз489599 1.4 1011277
06:00+13юз3792100 0.0 1012259
09:00+14зюз358372 0.0 1012423
12:00+16юз357479 0.0 1011582
15:00+18ююв466861 0.0 1009895
18:00+16вюв41081100 0.0 1007264
21:00+16ю51589100 2.8 1005520
3 октября, пн
пн300:00+15юв41097100 3.3 1003356
03:00+16ююв71491100 4.1 1001660
06:00+15юв71588100 0.9 1000861
09:00+14юв101884100 2.2 999741
12:00+15ююв101789100 1.6 9991304
15:00+12ююз71180100 1.7 10031115
18:00+11ююз6118162 0.1 1007972
21:00+11ююз5983100 0.1 1008734
4 октября, вт
вт400:00+9ююз5108736 0.1 1010559
03:00+8ююз498878 0.1 1012506
06:00+7ююз48925 0.0 1014255
09:00+10ююз59775 0.0 1015454
12:00+13ююз57615 0.0 10161147
15:00+14ююз575898 0.1 10171485
18:00+11ю36715 0.0 1018122
21:00+10ю377828 0.0 1019121